COSMOS 1275 DEB

Satellite information

Favourite Embed

Satellite Type and Status

DEBRISIN ORBIT

Key statistics

Satellite COSMOS 1275 DEB at a glance.

Uptime

16159

Days in orbit

Revolutions

≈ 14.1

Per day

Orbit

LEO

Low Earth Orbit

Inclination

82.9

Latest

Satellite identification and parameters

Extended collection of information and parameters for COSMOS 1275 DEB.

Object identification

Identified? True

Debris? True

Object name: COSMOS 1275 DEB

International designator: 1981-053AB

Object number (NORAD): 12671

Object ID (CCSDS): 12671

Country: COMMONWEALTH OF INDEPENDENT STATES (CIS)

Current information (Y/N): Y

RCS size: SMALL

Orbital parameters

Period: 102.084 minutes

Inclination: 82.9048 deg

SMA: 7235.437 km

Apoapsis: 872.226 km

Periapsis: 842.379 km

RAAN: 58.9188 deg

Eccentricy: 0.00206256

Argument of periapsis: 44.615 deg

Mean anomaly: 315.6682 deg

Mean motion: 14.1060558 rev/day

Mean motion (dot): 0.0000293 rev/day2

B* drag term: 0.0016314217 1/REarth

Two-line elements (TLE)

Creation date: Aug. 31, 2025, 2:26 a.m.

Reference frame: TEME

Reference center: EARTH

Epoch: Aug. 30, 2025, 9:06 p.m. UTC

TLE line 0: 0 COSMOS 1275 DEB

TLE line 1: 1 12671U 81053AB 25242.87955589 .00002930 00000-0 16314-2 0 9996

TLE line 2: 2 12671 82.9048 58.9188 0020626 44.6150 315.6682 14.10605580238908

Live tracking on map

Real-time ground track for satellite COSMOS 1275 DEB.

In-orbit conjunctions

A list of the most updated potential collisions computed for object COSMOS 1275 DEB.

Target Orbit TCA Probability of collision Miss distance Type
CZ-6A DEB SSO 2025-04-09 16:41:40 0.0001294761 178.0 (m) DEBRIS
COSMOS 2251 DEB LEO 2025-03-21 10:57:53 0.0002202146 183.0 (m) DEBRIS
CZ-6A DEB LEO 2025-01-04 01:57:23 0.0005109116 68.0 (m) DEBRIS
CZ-6A DEB LEO 2024-11-22 10:33:16 0.0001306248 759.0 (m) DEBRIS

Associated space launch

Navigation satellite providing location information for the Tsiklon-B navigation system

COSMOS 1275 DEB was lifted into orbit during the mission ‘Kosmos-3M | Parus 27’, on board a Kosmos-3M space rocket.

The launch took place on June 4, 1981, 3:41 p.m. from 132/2.

For more information about the launch, click the button.

Launch to space Kosmos-3M | Parus 27
Kosmos-3M | Parus 27

Agency: N/A

Status: Launch Successful

Launch date: June 4, 1981, 3:41 p.m. UTC

Rocket: Kosmos-3M

Launch pad: 132/2

Location: Plesetsk Cosmodrome, Russian Federation

...

Latest news about this satellite

There are no fresh news available about this satellite. Check back as we update our databases every day.


Newsletter sign-up

Weekly statistics, charts and insights to help you stay on top of the space industry.